Flight Track Log - Related Links

Times and Time Zones

All times are in EDT time to prevent confusion due to time zone crossing. See the EJA922 flight status page for this flight to view local times or setup timezone preferences in your user account.

Time Position Orientation Groundspeed Altitude Reporting Facility
EDT Latitude Longitude Course Direction KTS MPH feet Rate Location/Type
15:23 33.1167 -117.3500 320° Northwest 227 261 3,500  Level Southern California TRACON
15:24 33.1167 -117.4333 270° West 252 290 6,000 2,609 Climbing Southern California TRACON
15:25 33.1167 -117.5167 270° West 270 311 8,500 2,069 Climbing Southern California TRACON
15:26 33.1347 -117.5867 287° West 276 318 10,000 763 Climbing Los Angeles Center
15:27 33.1608 -117.7014 285° West 348 400 10,000 -290 Level Los Angeles Center
15:28 33.4108 -117.5605 320° Northwest  Level FlightAware Approximate
15:28 33.2364 -117.7989 313° West 392 451 9,400  Level Los Angeles Center
15:29 33.3111 -117.8897 315° West 312 359 8,000 -1,415 Descending Los Angeles Center
15:30 33.3667 -117.9594 314° West 293 337 6,500 -960 Descending Los Angeles Center
15:31 33.4325 -118.0108 327° Northwest 288 331 6,000 -242 Descending Los Angeles Center
15:32 33.4981 -118.0647 326° Northwest 288 331 6,000  Level Los Angeles Center
15:33 33.5633 -118.1200 325° Northwest 287 330 6,000  Level Los Angeles Center
15:34 33.6283 -118.1753 325° Northwest 288 331 6,000  Level Los Angeles Center
15:35 33.7058 -118.2406 325° Northwest 287 330 6,000  Level Los Angeles Center
15:36 33.7689 -118.2939 325° Northwest 286 329 6,000  Level Los Angeles Center
15:37 33.8314 -118.3464 325° Northwest 285 328 6,000 -390 Level Los Angeles Center
15:38 33.8958 -118.4011 325° Northwest 286 329 5,200 -484 Descending Los Angeles Center
15:39 33.9800 -118.4486 335° Northwest 284 327 5,000 -97 Descending Los Angeles Center
15:40 34.0589 -118.4744 345° North 284 327 5,000 -145 Level Los Angeles Center
15:41 34.1264 -118.5086 337° Northwest 276 318 4,700 -484 Descending Los Angeles Center
15:42 34.1967 -118.5406 339° North 277 319 4,000 -484 Descending Los Angeles Center
15:43 34.2536 -118.5014 30° Northeast 259 298 3,700 -488 Descending Los Angeles Center
15:44 34.2731 -118.4319 71° East 230 265 3,000 -629 Descending Los Angeles Center
15:45 34.2561 -118.3750 110° East 205 236 2,400 -871 Descending Los Angeles Center
15:46 34.2119 -118.3608 165° South 177 204 1,200 -1,180 Descending Los Angeles Center

Login

Don't have an account? Register now (free) for customized features, flight alerts, and more!